Temp
50 51 51 50 50 50 49 47 49 46 44 44 44 44 43 44 43 43 41 40 41 41
50 48 48 48 49 49 49 49 47 45 45 45 43 42 43 43 42 41 41 40 40 40
48 48 48 48 47 47 48 46 43 42 46 46 42 43 42 43 41 40 41 40 39 39
46 46 47 47 47 46 45 44 42 41 44 44 42 44 42 41 39 38 38 39 38 38
45 45 45 45 45 44 44 43 41 41 43 42 41 42 39 37 37 36 36 37 37 37
43 43 43 43 42 43 43 42 42 40 40 39 39 40 38 36 35 36 36 37 36 36
42 42 42 43 41 42 42 41 40 39 39 37 39 39 36 35 35 35 36 35 35 36
42 43 43 42 41 42 41 40 40 38 37 36 39 37 33 33 33 34 33 34 34 35
42 42 41 41 42 41 41 40 39 38 36 36 38 33 32 32 32 33 33 32 32 33
40 40 40 41 42 41 40 41 39 38 35 37 37 33 32 31 33 34 32 32 32 32
39 39 40 40 40 40 41 40 40 38 36 37 38 33 31 31 36 37 34 32 32 30
38 38 39 38 38 40 40 40 39 38 36 36 37 33 31 31 34 35 34 35 33 31
38 38 38 38 38 39 39 39 39 36 37 34 35 32 30 31 32 31 31 34 33 31
38 37 38 38 39 38 38 37 36 34 36 35 34 32 31 30 30 29 29 30 30 31
MSLP
1024.56 1024.27 1023.82 1023.49 1023.16 1022.70 1022.45 1022.11 1021.64 1021.85 1021.73 1021.23 1020.81 1020.34 1019.74 1019.07 1018.62 1018.21 1017.77 1017.18 1016.50 1015.61
1024.61 1024.47 1024.12 1023.74 1023.32 1022.93 1022.48 1021.99 1021.92 1021.90 1021.16 1020.83 1020.76 1020.34 1019.62 1018.89 1018.31 1018.03 1017.34 1016.76 1016.16 1015.32
1024.67 1024.52 1024.30 1023.79 1023.26 1022.95 1022.55 1022.26 1022.09 1021.79 1020.97 1020.61 1020.63 1019.85 1019.33 1018.58 1018.25 1017.76 1016.97 1016.36 1015.71 1014.90
1024.63 1024.52 1024.25 1023.71 1023.27 1023.00 1022.65 1022.31 1022.02 1021.83 1021.15 1020.62 1020.36 1019.58 1019.08 1018.66 1018.22 1017.50 1016.77 1016.00 1015.30 1014.48
1024.66 1024.48 1024.18 1023.73 1023.30 1023.19 1022.63 1022.35 1022.08 1021.96 1021.16 1020.63 1020.38 1019.67 1019.16 1018.78 1018.31 1017.45 1016.37 1015.62 1014.87 1014.02
1024.82 1024.54 1024.19 1023.81 1023.47 1022.99 1022.65 1022.26 1021.91 1021.89 1021.21 1020.75 1020.32 1019.58 1019.27 1018.82 1018.04 1017.17 1016.26 1015.34 1014.52 1013.59
1024.75 1024.47 1024.11 1023.70 1023.38 1023.02 1022.62 1022.20 1021.90 1021.66 1021.20 1020.85 1020.12 1019.52 1019.41 1018.67 1017.66 1016.79 1015.78 1015.07 1014.33 1013.49
1024.65 1024.28 1023.88 1023.51 1023.21 1022.90 1022.51 1022.20 1021.82 1021.47 1021.12 1020.77 1019.86 1019.54 1019.45 1018.61 1017.48 1016.33 1015.28 1014.66 1013.97 1013.26
1024.47 1024.08 1023.70 1023.40 1022.96 1022.60 1022.22 1021.92 1021.53 1021.16 1020.92 1020.33 1019.65 1019.73 1019.39 1018.50 1017.32 1015.97 1015.00 1014.16 1013.53 1012.95
1024.39 1023.96 1023.64 1023.29 1022.79 1022.40 1021.97 1021.57 1021.10 1020.78 1020.82 1019.93 1019.47 1019.49 1019.12 1018.29 1016.80 1015.40 1014.82 1014.06 1013.34 1012.58
1024.35 1023.97 1023.61 1023.22 1022.74 1022.31 1021.86 1021.36 1020.81 1020.53 1020.56 1019.80 1019.32 1019.35 1019.02 1018.14 1016.36 1014.99 1014.50 1013.87 1013.26 1012.66
1024.43 1024.07 1023.58 1023.17 1022.78 1022.37 1021.85 1021.27 1020.85 1020.63 1020.38 1019.76 1019.31 1019.17 1018.87 1018.01 1016.48 1015.21 1014.43 1013.58 1013.07 1012.65
1024.55 1024.21 1023.66 1023.32 1022.82 1022.43 1021.87 1021.39 1020.96 1020.81 1020.24 1019.87 1019.45 1019.16 1018.89 1018.12 1016.88 1015.72 1014.72 1013.60 1012.88 1012.49
1024.71 1024.41 1023.97 1023.43 1022.91 1022.46 1021.92 1021.57 1021.17 1020.92 1020.22 1019.87 1019.73 1019.25 1018.83 1018.21 1017.27 1016.36 1015.17 1013.91 1013.02 1012.45
Wind_Speed
10 8 8 9 9 8 8 8 12 12 13 14 14 14 12 11 11 13 11 16 14 12
9 10 9 10 9 8 11 10 12 14 13 13 12 14 15 10 13 13 13 13 14 13
9 9 9 9 10 11 12 12 12 14 15 14 13 13 14 12 13 15 12 11 15 14
8 9 9 9 10 11 13 12 12 14 14 13 14 14 14 15 15 17 16 16 16 17
8 9 9 10 11 12 12 12 12 13 14 13 14 15 14 15 16 17 18 18 17 17
8 8 9 10 11 12 12 12 12 12 13 13 14 15 13 15 17 18 17 18 17 17
7 8 9 10 10 11 12 12 12 12 13 12 14 13 15 17 18 18 17 16 16 17
8 8 9 10 10 11 11 11 12 12 12 12 13 10 16 18 18 18 16 14 15 14
8 9 10 10 11 11 11 11 11 11 12 14 10 17 23 22 17 16 15 15 14 15
8 9 10 10 11 12 12 12 12 12 12 14 14 20 24 27 17 13 12 14 14 14
8 9 10 11 11 12 11 12 12 12 13 14 13 19 24 28 19 15 14 13 13 15
9 10 10 11 12 12 12 12 13 12 14 15 16 21 24 24 18 17 18 16 14 14
8 10 10 11 11 11 11 12 11 13 14 15 16 20 23 23 14 16 15 16 15 19
9 10 10 11 10 11 11 12 12 13 14 14 15 16 23 26 15 13 14 13 14 13
Wind_Direction
350 341 332 338 331 325 332 316 329 338 322 320 320 315 314 311 316 313 311 304 301 296
345 340 334 330 327 334 325 332 340 321 319 319 321 316 318 310 309 313 311 309 305 296
340 338 331 327 334 334 333 331 332 323 322 324 324 317 318 325 319 313 315 309 310 301
342 337 331 334 341 339 330 337 334 320 321 325 320 325 326 330 318 321 317 313 311 305
341 338 336 343 344 336 335 333 332 319 324 331 328 325 331 328 323 319 318 316 311 307
342 341 341 341 346 331 334 332 331 330 327 337 323 332 334 331 321 320 318 317 313 312
341 340 344 342 340 338 334 332 334 331 330 336 327 334 342 329 325 322 320 317 313 311
342 341 345 345 337 337 336 334 336 336 335 331 331 356 338 329 328 322 321 319 316 313
346 346 348 343 337 338 337 337 335 337 342 325 341 355 342 336 326 317 324 322 324 316
349 347 345 341 340 340 340 337 337 345 340 338 338 358 343 340 317 322 328 324 324 324
350 346 343 342 342 340 340 338 341 352 332 339 342 359 347 342 330 333 335 329 328 329
351 343 341 343 342 342 337 339 341 356 334 344 337 357 348 345 337 338 337 335 340 335
350 342 339 341 339 340 339 342 344 347 339 351 343 349 348 349 340 338 335 334 338 340
348 345 340 337 342 341 345 342 350 341 342 349 351 344 346 348 344 342 333 332 336 338